Regional Weather Roundup
Issued by NWS

Home | Current Version | Previous Version | Text Only | Print | Product List | Glossary On
Versions: 1 2 3 4 5 6 7 8 9 10 11 12 13 14 15 16 17 18 19 20 21 22 23 24 25 26 27 28 29 30 31 32 33 34 35 36 37 38 39 40 41 42 43 44 45 46 47 48 49 50
000
ASUS44 KLUB 301410
RWRTX
WEST TEXAS WEATHER ROUNDUP
NATIONAL WEATHER SERVICE LUBBOCK TX
900 AM CDT TUE JUN 30 2015

NOTE: "FAIR" INDICATES FEW OR NO CLOUDS BELOW 12,000 FEET WITH NO
SIGNIFICANT WEATHER AND/OR OBSTRUCTIONS TO VISIBILITY.

TXZ004-006>008-010-012-014-016-OKZ002-301500-
TEXAS PANHANDLE/OKLAHOMA PANHANDLE

CITY           SKY/WX    TMP DP  RH WIND       PRES   REMARKS
AMARILLO       SUNNY     70  57  63 S16       30.18R
BORGER         SUNNY     74  60  61 SW7       30.14R
CANADIAN       SUNNY     73  64  75 W3        30.10S
DALHART        SUNNY     72  56  57 S14       30.20R
DUMAS          SUNNY     69  61  76 SW10      30.17F
GUYMON         SUNNY     79  57  46 VRB3      30.11R
HEREFORD       SUNNY     70  60  69 MISG      30.21R
PAMPA          SUNNY     74  57  54 SW16G22   30.16R
PERRYTON       SUNNY     77  59  54 SW7       30.11S
$$

TXZ026-029-035-045-048-301500-
SOUTHERN PANHANDLE/SOUTH PLAINS/ROLLING PLAINS

CITY           SKY/WX    TMP DP  RH WIND       PRES   REMARKS
CHILDRESS      MOSUNNY   74  63  68 W12       30.08S
SEMINOLE       CLOUDY    67  61  81 SW6       30.16S
LUBBOCK        CLOUDY    68  62  81 W12       30.14F
PLAINVIEW      MOSUNNY   67  65  96 W8        30.16R
SNYDER         CLOUDY    67  64  88 S5        30.13R
$$

TXZ052-054-060>062-072-078-127-140-154-169-301500-
PERMIAN BASIN/CONCHO VALLEY/BIG COUNTRY/EDWARDS PLATEAU

CITY           SKY/WX    TMP DP  RH WIND       PRES   REMARKS
ABILENE        PTSUNNY   74  66  76 SE7       30.09R
BIG SPRING     CLOUDY    74  67  78 CALM      30.13R
BRADY          MOSUNNY   77  72  83 CALM      30.11R
BROWNWOOD      PTSUNNY   77  68  73 E5        30.10R
JUNCTION       PTSUNNY   76  71  85 CALM      30.10R
MIDLAND        CLOUDY    67  62  84 S13       30.10F
ODESSA           N/A     66  61  84 S7        30.12F
SAN ANGELO     CLOUDY    71  65  81 SW5       30.12R HAZE
SONORA         CLOUDY    75  72  88 SW5       30.16R
SWEETWATER     CLOUDY    71  64  77 S10       30.14R
WINK           PTSUNNY   69  60  73 E15       30.11R
$$

TXZ055-058-074-075-080-082-301500-
FAR WEST/SOUTHWEST MOUNTAINS/TRANS PECOS

CITY           SKY/WX    TMP DP  RH WIND       PRES   REMARKS
ALPINE         CLOUDY    63  59  88 NE14G24   30.30R
DRYDEN           N/A     75  69  81 NE10      30.09R
EL PASO        MOSUNNY   75  55  49 N8        30.14R
FORT STOCKTON  CLOUDY    67  58  72 SE13      30.12F
GUADALUPE PASS CLOUDY    61  59  93 NE33      30.25R
MARFA          PTSUNNY  N/A N/A N/A NE23G30   30.25R THUNDER
PECOS          CLOUDY    66  62  87 SE9       30.12S
PRESIDIO       FAIR      81  62  52 MISG      30.06S
$$

TXZ014-016-019-021>030-083-301500
TEXAS TECH WEST TEXAS MESONET/TEXAS PANHANDLE/NORTHERN SOUTH PLAINS

CITY           SKY/WX    TMP DP  RH WIND       PRES   REMARKS
ABERNATHY 5ENE   N/A     66  62  85 W9        30.17S
AMARILLO 9NNE    N/A     74  57  55 S13       30.16S
AMARILLO 7SSE    N/A     71  58  64 SW12      30.20R
AMHERST 1NE      N/A     65  62  90 SW8       30.19R
BOOTLEG 11WNW    N/A     69  54  59 S14       30.24S
CANADIAN 6E      N/A     73  63  69 W3        30.09S
CAPROCK CYN SP   N/A     74  59  60 W17       30.12S
CHILDRESS 2NNE   N/A     74  61  63 W10       30.08S
CLARENDON 2WSW   N/A     71  60  68 SW15      30.14R
CLAUDE 12SW      N/A     70  58  65 SW10      30.18R
DIMMITT 2NE      N/A     68  58  69 S14       30.20S
FLOYDADA 2NNE    N/A     67  60  78 W14       30.14F
FRIONA 2NE       N/A     67  60  77 S9        30.22S
GOODLETT 3W      N/A     75  62  62 W9        30.06R
HART 3N          N/A     66  60  80 S10       30.20R
HEREFORD 2NW     N/A     69  55  61 S14       30.20S
MCLEAN 1E        N/A     75  56  51 SW13      30.12R
MEMPHIS 1NE      N/A     75  60  60 SW9       30.09S
MULESHOE 2SSW    N/A     67  61  83 S7        30.21R
OLTON 6S         N/A     65  61  86 SW9       30.18S
PALO DURO SP     N/A     71  58  62 SW8       30.20R
PAMPA 2E         N/A     73  59  61 SW12      30.15R
PLAINVIEW 1S     N/A     66  62  86 W6        30.16S
SILVERTON 7ESE   N/A     70  59  68 SW17      30.16R
TULIA 2ENE       N/A     67  62  83 SW14      30.18R
TURKEY 2WSW      N/A     75  61  61 W14       30.10S
UMBARGER 3NNE    N/A     70  57  62 SW16      30.20R
$$

TXZ033>036-039>041-045>048-301500
TEXAS TECH WEST TEXAS MESONET/SOUTH PLAINS

CITY           SKY/WX    TMP DP  RH WIND       PRES   REMARKS
AIKEN 3WSW       N/A     67  62  83 W9        30.17S
ANDREWS 2NE      N/A     69  61  75 S6        30.13S
ANTON 6SSW       N/A     66  61  85 SW9       30.17F
BROWNFIELD 2S    N/A     64  61  88 W6        30.15F
DENVR CTY 7WNW   N/A     64  59  84 S3        30.17S
GAIL 2ESE        N/A     67  64  88 W3        30.11R
LAMESA 2SE       N/A     67  62  83 W12       30.11F
LEVELLAND 4S     N/A     65  61  86 SW6       30.18R
LUBBOCK 3WNW     N/A     67  61  79 W8        30.15S
MORTON 1ENE      N/A     65  62  89 S8        30.19S
ODONNELL 1N      N/A     67  60  78 W13       30.12S
PLAINS 3N        N/A     65  60  82 S5        30.18S
RALLS 1SE        N/A     68  61  78 W9        30.14R
REESE CENTER     N/A     66  61  85 W9        30.16S
SEAGRAVES 1SW    N/A     65  62  87 S2        30.16S
SLATON 2NE       N/A     68  62  82 W12       30.13R
SNYDER 3E        N/A     66  64  94 S8        30.12R
SUNDOWN 8SW      N/A     65  62  89 S3        30.18R
TAHOKA 3NNE      N/A     68  62  79 W13       30.12S
WOLFFORTH 6SSW   N/A     66  62  87 W9        30.16S
$$

TXZ031-032-036>038-042>044-301500-
TEXAS TECH WEST TEXAS MESONET/ROLLING PLAINS

CITY           SKY/WX    TMP DP  RH WIND       PRES   REMARKS
ASPERMONT 3NE    N/A     73  64  72 SE5       30.10
GRAHAM 5SSW      N/A     68  60  75 NW8       30.12R
GUTHRIE 10WSW    N/A     73  62  67 NW6       30.07R
HASKELL 1NW      N/A     74  62  64 N2        30.07S
JAYTON 1SSE      N/A     71  64  78 W2        30.10R
KNOX CITY 3NW    N/A     76  62  61 N2        30.07R
LK A HENRY 1NW   N/A     70  64  79 S5        30.12R
NORTHFIELD 1S    N/A     74  63  69 W10       30.09R
ODELL 4ENE       N/A     75  65  71 W6        30.06S
PADUCAH 10SW     N/A     72  63  72 NW7       30.08R
POST 1NE         N/A     71  62  71 E2        30.12R
RRING SPRGS 3N   N/A     71  63  74 W13       30.10R
SEYMOUR 3NW      N/A     78  60  53 N9        30.05S
SPUR 1W          N/A     71  61  70 NW9       30.08R
WEINERT 2NNE     N/A     76  65  69 SW3       30.07R
WHITE RVR 6NE    N/A     72  60  66 W9        30.11R
$$

TXZ052-054-060>062-072-078-127-140-154-169-301500-
TEXAS TECH WEST TEXAS MESONET/PERMIAN BASIN/
CONCHO VALLEY/BIG COUNTRY/EDWARDS PLATEAU

CITY           SKY/WX    TMP DP  RH WIND       PRES   REMARKS
COYANOSA 2N      N/A     67  62  84 E1        30.12R
JUNCTION 1SSW    N/A     77  71  82 S8        30.11R
MERTZON 3NNE     N/A     66  64  93 E2        30.12S
SAN ANGELO 7NW   N/A     69  63  82 S2        30.12S
STRLNG CT 4WSW   N/A     69  61  76 S12       30.08S
ST LAWRNCE 5SW   N/A     66  63  89 S12       30.10F
SWEETWATR 11SW   N/A     69  64  83 S7        30.14R
WALL 1E          N/A     70  65  83 W6        30.13R
$$

TXZ055-058-074-075-080-082-301500-
TEXAS TECH WEST TEXAS MESONET/FAR WEST/SOUTHWEST MOUNTAINS/TRANS PECOS

CITY           SKY/WX    TMP DP  RH WIND       PRES   REMARKS
$$



USA.gov is the U.S. government's official web portal to all federal, state and local government web resources and services.